Probability
1 1 0 0 0 0 0 0 0 0 0 0 0 0 0 0 0 0 0 0 0 0 0 1 2 3 3 2 1 0 0 0 0 0 0 0 0 0 0 0 0 0 0
3 2 0 0 0 0 0 0 0 0 0 0 0 0 0 0 0 0 0 0 0 0 0 0 1 2 3 2 1 0 0 0 0 0 0 0 0 0 0 0 0 0 0
5 3 1 0 0 0 0 0 0 0 0 0 0 0 0 0 0 0 0 0 0 0 0 0 1 1 3 2 1 0 0 0 0 0 0 0 0 0 0 0 0 0 0
5 4 2 1 0 0 0 0 0 0 0 0 0 0 0 0 0 0 0 0 0 0 0 0 1 1 2 3 1 0 0 0 0 0 0 0 0 0 0 0 0 1 1
5 4 2 1 0 0 0 0 0 0 0 0 0 0 0 0 0 0 0 0 0 0 0 0 0 1 2 3 2 1 0 0 0 0 0 0 0 0 0 0 0 1 2
4 3 2 1 0 0 0 0 0 0 0 0 0 0 0 0 0 1 1 1 0 0 0 0 0 1 1 2 2 2 1 0 0 0 0 0 1 1 1 0 0 1 2
2 2 1 1 0 0 0 0 0 0 0 0 0 0 0 0 0 2 2 1 0 0 0 0 0 1 1 1 1 2 2 1 0 0 0 0 1 1 1 0 0 0 1
1 0 0 0 0 0 0 0 0 0 0 0 0 0 0 0 0 1 1 1 0 0 0 0 0 1 2 1 0 1 1 1 1 0 0 0 0 0 0 0 0 0 1
1 0 0 0 0 0 0 0 0 0 0 0 0 0 0 0 0 0 0 0 0 0 0 1 1 2 3 2 1 0 0 1 2 1 0 0 0 0 0 0 0 0 1
2 1 0 0 0 0 0 0 0 0 0 0 0 0 0 0 0 0 0 0 0 0 1 2 3 3 3 2 1 0 0 1 2 2 1 0 0 0 0 0 0 0 1
2 2 1 0 0 0 0 0 0 0 0 0 0 0 0 0 0 0 0 0 0 0 1 2 3 3 3 2 1 0 0 1 2 3 1 0 0 0 0 0 0 0 0
2 2 2 1 0 0 0 0 0 0 0 0 0 0 0 0 0 0 0 0 0 0 0 1 3 3 3 2 1 0 0 1 2 2 2 1 0 0 0 0 0 0 0
2 2 2 2 1 0 0 0 0 0 0 0 0 0 0 0 0 0 0 0 0 0 0 1 2 3 3 2 1 0 0 0 1 1 1 1 0 0 0 0 0 0 0
2 1 1 1 1 0 0 0 0 0 0 0 0 0 0 0 0 0 0 0 0 0 0 0 1 3 3 2 1 0 0 0 0 0 0 0 0 0 0 0 0 0 0
3 2 1 0 0 0 0 0 0 0 0 0 0 0 0 0 0 0 0 0 0 0 0 0 1 2 3 2 1 0 0 0 0 0 0 0 0 0 0 0 0 0 0
3 2 1 0 0 0 0 0 0 0 0 0 0 0 0 0 0 0 0 0 0 0 0 0 0 1 2 2 1 0 0 0 0 0 0 0 0 0 0 0 0 0 0
3 3 1 0 0 0 0 0 0 0 0 0 0 0 0 0 0 0 0 0 0 0 0 0 0 0 1 1 1 0 0 0 0 0 0 0 0 0 0 0 0 0 0
3 3 2 1 0 0 0 0 0 0 0 0 0 0 0 0 0 0 0 0 0 0 0 0 0 0 0 0 0 0 0 0 0 0 0 0 0 0 0 0 0 0 0
2 3 2 1 0 0 0 0 0 0 0 0 0 0 0 0 0 0 0 0 0 0 0 0 0 0 0 0 0 0 0 0 0 0 0 0 0 0 0 0 0 0 0
1 2 2 1 0 0 0 0 0 0 0 0 0 0 0 0 0 0 0 0 0 0 0 0 0 0 0 0 0 0 0 0 0 0 0 0 0 0 0 0 0 0 0
1 2 2 1 0 0 0 0 0 0 0 0 0 0 0 0 0 0 0 0 0 0 0 0 0 0 0 0 0 0 0 0 0 0 0 0 0 0 0 0 0 0 0
1 2 2 1 0 0 0 0 0 0 0 0 0 0 0 0 0 0 0 0 0 0 0 0 0 0 0 0 0 0 0 0 0 0 0 0 0 0 0 0 0 0 0
1 2 2 1 0 0 0 0 0 0 0 0 0 0 0 0 0 0 0 0 0 0 0 0 0 0 0 0 0 0 0 0 0 0 0 0 0 1 1 0 0 0 0
1 2 1 0 0 0 0 0 0 0 0 0 0 0 0 0 0 0 0 0 0 0 0 0 0 0 0 0 0 0 0 0 0 0 0 1 1 2 2 1 0 0 0
2 2 1 0 0 0 0 0 0 0 0 0 0 0 0 0 0 0 0 0 0 0 0 0 0 0 0 0 0 0 0 0 0 0 0 1 2 2 2 1 0 0 0
3 2 1 0 0 0 0 0 0 0 0 0 0 0 0 0 0 0 0 0 0 0 0 0 0 0 0 0 0 0 0 0 0 0 0 1 2 2 1 0 0 0 0
Wind_Speed
1 1 1 1 1 1 1 1 2 1 1 1 1 1 1 1 2 2 2 4 5 5 5 6 7 7 7 7 7 7 7 7 7 7 7 7 7 7 7 8 8 8 9
1 1 1 1 1 1 1 1 1 1 1 1 1 1 1 1 2 2 3 2 4 4 4 5 6 6 6 7 7 6 7 6 6 6 6 7 6 6 6 7 7 7 8
1 0 0 1 1 1 1 1 2 1 1 1 1 2 0 0 1 2 2 2 2 3 4 5 5 5 6 6 6 6 6 6 6 6 6 6 5 5 5 5 6 6 7
1 0 0 1 1 1 1 1 1 1 1 1 1 1 0 0 0 1 2 2 2 2 3 4 5 5 5 5 6 6 6 6 6 6 5 5 5 5 5 5 6 6 6
1 1 0 0 1 1 1 1 1 1 0 1 1 1 1 0 0 1 2 2 2 2 2 3 4 4 4 5 5 5 5 5 5 5 5 5 5 5 5 5 5 5 5
1 1 0 0 1 0 0 1 1 1 0 0 1 1 1 1 1 1 1 1 1 1 2 3 3 2 3 4 4 5 5 5 5 5 5 5 6 5 5 4 4 4 5
2 1 1 1 0 0 1 0 0 0 0 0 0 1 1 1 1 1 1 1 1 1 2 2 2 2 2 3 3 4 4 4 5 4 5 6 6 5 5 5 5 4 5
1 1 1 1 1 1 1 1 1 0 1 0 1 0 0 0 0 1 1 2 1 1 1 2 2 2 2 2 2 3 3 4 5 4 5 6 7 7 6 6 5 5 4
2 2 1 1 1 1 2 2 2 1 2 1 1 1 1 2 1 1 1 2 1 1 1 1 2 2 2 2 2 3 3 3 5 5 6 7 7 8 8 7 6 6 6
2 2 2 2 2 2 2 2 2 2 3 3 2 2 1 1 2 1 1 1 1 1 2 1 2 2 3 2 3 3 4 4 5 6 6 7 7 8 8 8 7 6 6
2 2 3 2 2 2 2 3 2 3 3 3 2 1 1 1 1 2 2 1 1 1 2 2 1 2 2 3 2 3 4 4 5 6 7 7 7 8 9 8 8 8 7
2 2 3 3 3 2 3 3 3 4 4 4 2 2 2 2 2 1 2 2 2 2 2 1 2 2 2 2 2 3 4 4 5 5 6 7 7 7 9 8 8 8 7
3 3 3 3 3 3 3 3 3 4 4 4 4 3 3 3 2 2 2 2 2 2 1 1 2 2 1 2 2 3 3 3 4 5 7 6 6 5 6 7 8 8 8
3 3 4 4 4 4 4 3 3 4 3 4 4 4 3 3 2 2 2 2 1 2 2 2 1 2 1 1 2 3 3 4 5 5 6 6 5 4 4 6 6 6 7
3 4 4 4 4 4 4 4 3 4 3 3 4 4 3 3 2 2 2 3 3 3 3 2 1 2 2 2 3 3 3 5 6 6 6 6 6 6 6 6 6 5 6
4 4 4 4 4 4 3 3 3 3 3 3 3 4 4 3 3 2 3 3 3 3 4 3 2 2 2 2 3 3 3 5 6 7 6 7 7 7 7 6 6 6 6
4 4 4 4 4 4 4 3 3 4 4 4 4 4 5 4 3 3 3 3 3 2 4 4 2 2 3 3 3 3 3 3 4 7 7 8 8 8 8 7 6 7 6
4 4 4 4 4 5 4 4 4 4 4 4 5 5 5 4 5 4 4 4 4 3 3 4 3 2 3 4 3 3 3 3 3 6 8 8 8 8 8 8 7 7 7
5 4 4 4 5 5 5 5 4 4 4 4 4 4 4 4 5 4 4 4 4 4 3 3 3 2 2 3 3 3 3 3 3 5 7 8 8 8 8 8 8 7 7
5 5 4 5 5 5 5 5 5 5 4 5 5 5 5 4 4 4 5 5 4 4 4 4 3 3 3 3 3 3 3 3 3 3 5 6 7 7 8 8 8 7 7
5 5 5 5 5 5 5 5 5 5 5 5 5 5 5 6 6 5 5 5 5 4 4 4 4 3 3 3 4 3 4 3 3 3 3 4 4 4 5 7 8 8 8
5 5 5 5 5 5 7 9 7 5 5 5 5 5 5 6 7 8 8 8 7 7 7 6 5 6 6 5 4 3 3 3 4 3 3 4 3 4 4 4 7 8 9
5 5 5 5 5 6 9 10 9 5 5 5 5 4 4 4 5 5 7 7 7 8 8 7 7 8 7 6 5 5 5 4 4 2 3 4 3 5 4 4 8 8 8
5 5 5 5 5 6 9 10 9 5 5 5 5 5 4 4 4 5 5 5 5 6 7 5 6 6 6 6 6 6 6 3 1 2 2 3 3 4 3 3 6 8 8
5 5 4 5 4 5 9 10 9 4 4 5 5 4 4 5 6 7 5 5 5 5 6 7 6 6 6 7 5 3 4 4 3 3 2 2 2 2 2 3 4 6 6
5 5 5 4 4 4 8 9 8 4 4 4 4 4 6 6 6 7 5 5 5 4 4 4 4 4 4 4 5 4 4 5 3 2 3 3 2 1 2 2 2 2 4
Wind_Direction
16 13 351 1 6 5 352 319 319 343 357 342 348 55 89 104 100 103 105 102 109 116 129 135 132 127 125 124 123 123 124 121 119 119 115 111 104 105 103 102 104 103 100
17 26 351 347 359 347 327 321 324 349 0 356 355 16 62 116 114 108 121 117 114 120 130 141 143 141 137 134 133 130 132 133 130 125 123 119 116 107 111 108 111 110 106
19 19 2 352 341 325 329 346 357 10 12 4 347 352 11 94 103 119 127 137 131 126 136 149 148 145 143 139 140 137 136 138 139 134 132 131 127 120 116 122 121 119 114
357 332 60 348 327 332 355 5 4 359 356 360 328 323 318 284 89 105 104 122 128 141 144 147 146 149 151 153 147 145 145 145 148 149 145 146 143 134 135 128 131 127 124
353 351 333 323 335 351 6 346 0 344 352 14 333 310 294 295 164 114 108 111 109 120 133 140 139 140 143 153 153 150 150 152 158 162 162 161 157 155 146 142 133 140 139
347 3 317 302 331 330 352 356 352 333 318 20 332 320 283 240 172 144 139 111 117 127 133 146 148 143 139 143 156 156 158 158 165 171 174 174 173 171 167 162 159 157 158
345 351 334 303 276 249 230 231 357 318 287 55 85 306 300 226 148 151 132 129 151 159 155 158 153 151 168 168 171 173 173 172 170 181 188 188 185 184 188 186 184 179 178
338 329 341 316 287 253 229 197 162 251 275 141 147 195 229 272 287 224 161 161 171 189 180 166 165 166 163 162 182 182 181 192 192 193 198 202 199 198 198 197 193 193 186
328 302 267 257 275 246 234 224 190 193 208 242 195 176 175 202 264 259 189 171 169 178 195 180 176 179 173 158 172 189 186 205 211 211 215 213 211 210 208 206 202 200 197
298 301 271 246 242 251 238 232 213 214 193 213 223 240 235 191 171 231 257 196 186 199 211 209 196 189 177 172 178 181 192 214 224 224 226 222 218 216 212 211 209 205 201
290 301 285 260 242 238 244 234 226 219 208 213 205 221 255 235 193 180 225 241 274 237 218 210 195 202 188 179 180 191 191 205 219 224 229 227 227 224 219 217 215 208 203
286 289 295 273 257 244 240 241 227 224 220 222 210 199 196 197 208 198 204 225 253 268 248 210 203 200 189 174 186 195 198 206 218 226 231 232 233 234 224 221 220 214 209
292 281 287 278 263 253 245 242 228 234 227 221 212 213 213 220 212 223 194 215 259 281 258 223 213 198 192 177 191 198 207 219 224 228 231 233 236 243 235 228 230 226 217
280 275 283 280 271 254 246 240 237 231 231 225 222 214 222 231 223 209 199 187 230 269 254 236 229 204 200 189 210 216 218 229 231 232 233 233 233 233 244 237 234 231 224
283 281 276 279 277 260 239 233 237 228 228 223 221 217 221 231 231 226 211 194 189 225 246 234 230 228 226 216 216 219 222 229 232 232 232 231 229 224 232 232 228 229 229
291 290 285 276 279 274 250 236 241 231 226 234 227 224 222 223 223 223 219 226 212 209 239 237 243 265 248 249 236 230 229 235 235 234 231 229 227 224 224 223 225 220 224
282 278 278 275 278 281 266 245 242 237 226 231 230 227 227 219 220 224 219 223 225 217 237 259 252 262 258 243 240 236 233 226 232 237 234 231 229 224 222 222 224 222 220
277 272 271 269 270 277 270 252 245 242 229 232 232 226 227 225 223 226 219 220 223 224 219 247 259 246 258 236 231 241 245 243 236 241 238 234 230 227 226 225 222 222 218
281 274 271 269 266 268 267 257 248 242 231 233 233 229 230 225 228 228 227 223 223 226 213 225 253 261 262 241 232 246 241 246 246 238 236 232 230 230 230 228 226 222 216
284 273 268 268 267 265 270 261 248 244 236 234 231 230 230 222 224 231 234 230 222 216 210 219 237 251 250 248 225 227 243 243 243 238 236 238 236 235 235 233 226 222 220
286 277 268 267 267 263 267 261 247 245 238 237 233 228 230 237 236 236 239 231 223 217 215 218 228 241 244 237 230 225 238 241 238 224 221 230 226 225 227 233 228 224 225
284 279 267 264 266 271 280 279 268 247 239 237 237 235 236 238 244 248 250 250 242 226 218 215 226 227 232 235 234 230 233 226 234 210 210 233 217 225 225 221 231 228 227
287 283 275 267 264 273 282 282 277 265 241 238 236 236 245 249 250 244 250 255 258 258 247 231 223 226 225 225 222 226 227 224 236 221 206 231 217 229 227 234 232 228 228
282 278 280 272 268 276 284 283 278 265 244 237 233 229 229 234 247 252 247 244 246 253 255 245 230 228 231 224 220 221 221 228 259 224 203 232 223 230 232 227 230 227 227
286 281 282 275 273 282 283 282 278 256 247 242 237 232 233 231 251 256 246 245 250 257 268 266 263 254 252 249 240 221 202 202 228 227 206 214 232 241 225 226 225 228 228
284 285 283 273 272 278 288 286 282 259 249 245 240 235 246 251 252 251 237 232 244 254 259 264 268 269 250 237 240 226 211 203 207 221 202 192 197 180 249 235 211 216 228